User: anonymous   Login
Location: Mississauga
(43.5802°N, 79.6166°W)
Time: 22:35:40
(UTC-04:00)
Language:

Cosmos 1437 Rocket - Orbit

View from above orbital plane
View from above orbital plane
View from above satellite
View from above satellite

Ground track
Ground track

The orbit data is extracted from the following two-line orbital elements,

1 13771U 83003B   17085.70006251 +.00000995 +00000-0 +59324-4 0  9995
2 13771 081.1346 097.8485 0039874 278.1161 081.5541 15.09639382861344
Epoch (UTC): 26 March 2017 16:48:05
Eccentricity: 0.0039874
inclination: 81.1346°
perigee height: 510 km
apogee height: 565 km
right ascension of ascending node: 97.8485°
argument of perigee: 278.1161°
revolutions per day: 15.09639382
mean anomaly at epoch: 81.5541°
orbit number at epoch: 86134

The dashed part of the orbit path shows where the satellite is in the earth's shadow,  

DLR